TimeEST,TemperatureF,Dew PointF,Humidity,Sea Level PressureIn,VisibilityMPH,Wind Direction,Wind SpeedMPH,Gust SpeedMPH,PrecipitationIn,Events,Conditions,WindDirDegrees,DateUTC
12:56 AM,23.0,5.0,46,30.28,10.0,West,8.1,-,N/A,,Clear,280,2014-02-08 05:56:00
1:56 AM,23.0,1.9,40,30.28,10.0,West,10.4,-,N/A,,Clear,280,2014-02-08 06:56:00
2:56 AM,21.0,1.9,44,30.30,10.0,WNW,5.8,-,N/A,,Clear,290,2014-02-08 07:56:00
3:56 AM,19.9,1.0,44,30.31,10.0,WNW,8.1,-,N/A,,Clear,300,2014-02-08 08:56:00
4:56 AM,19.0,1.0,46,30.32,10.0,WNW,6.9,-,N/A,,Clear,300,2014-02-08 09:56:00
5:56 AM,19.0,-2.0,40,30.30,10.0,NW,10.4,-,N/A,,Clear,310,2014-02-08 10:56:00
6:56 AM,17.1,-0.0,47,30.32,10.0,West,3.5,-,N/A,,Clear,260,2014-02-08 11:56:00
7:56 AM,18.0,-0.9,44,30.32,10.0,WNW,9.2,-,N/A,,Clear,290,2014-02-08 12:56:00
8:56 AM,19.0,-0.9,42,30.33,10.0,WNW,8.1,-,N/A,,Clear,290,2014-02-08 13:56:00
9:56 AM,19.9,-2.9,37,30.34,10.0,West,4.6,-,N/A,,Clear,280,2014-02-08 14:56:00
10:56 AM,21.9,-2.0,35,30.31,10.0,WNW,3.5,-,N/A,,Clear,300,2014-02-08 15:56:00
11:56 AM,24.1,-2.0,32,30.27,10.0,WNW,4.6,-,N/A,,Clear,290,2014-02-08 16:56:00
12:56 PM,26.1,1.0,34,30.25,10.0,WNW,6.9,-,N/A,,Mostly Cloudy,290,2014-02-08 17:56:00
1:56 PM,26.1,1.0,34,30.22,10.0,WNW,5.8,-,N/A,,Mostly Cloudy,300,2014-02-08 18:56:00
2:56 PM,27.0,-0.0,31,30.23,10.0,West,5.8,-,N/A,,Overcast,280,2014-02-08 19:56:00
3:56 PM,27.0,-0.0,31,30.24,10.0,Variable,4.6,-,N/A,,Overcast,0,2014-02-08 20:56:00
4:56 PM,27.0,1.0,33,30.22,10.0,West,3.5,-,N/A,,Overcast,280,2014-02-08 21:56:00
5:56 PM,26.1,3.0,37,30.20,10.0,Calm,Calm,-,N/A,,Scattered Clouds,0,2014-02-08 22:56:00
6:56 PM,25.0,3.9,41,30.19,10.0,Calm,Calm,-,N/A,,Scattered Clouds,0,2014-02-08 23:56:00
7:56 PM,25.0,5.0,43,30.18,10.0,West,3.5,-,N/A,,Mostly Cloudy,270,2014-02-09 00:56:00
8:56 PM,23.0,10.0,58,30.17,10.0,Calm,Calm,-,N/A,,Scattered Clouds,0,2014-02-09 01:56:00
9:56 PM,21.9,7.0,53,30.16,10.0,NW,5.8,-,N/A,,Clear,310,2014-02-09 02:56:00
10:56 PM,21.9,7.0,53,30.15,10.0,NW,5.8,-,N/A,,Clear,310,2014-02-09 03:56:00
11:56 PM,21.0,5.0,50,30.15,10.0,Calm,Calm,-,N/A,,Clear,0,2014-02-09 04:56:00